Location: Zürich
(47.3769°N, 8.5417°E)
Time: 14:22:20
(UTC+02:00)

ISS - Visible Passes

Search period start: 26 September 2023 00:00
Search period end: 06 October 2023 00:00
Orbit: 413 x 421 km, 51.6° (Epoch: 26 September)

Date Brightness Start Highest point End Pass type
(mag) Time Alt. Az. Time Alt. Az. Time Alt. Az.
26 Sep -2.9 20:03:53 10° WNW 20:07:05 41° N 20:09:48 13° ENE visible
26 Sep -2.1 21:40:41 10° WNW 21:42:43 34° WNW 21:42:43 34° WNW visible
27 Sep -3.8 20:52:32 10° WNW 20:55:53 78° NNE 20:56:25 59° E visible
28 Sep -3.5 20:04:21 10° WNW 20:07:40 58° NNE 20:10:07 17° E visible
28 Sep -1.6 21:41:17 10° WNW 21:43:01 24° W 21:43:01 24° W visible
29 Sep -3.3 20:52:55 10° WNW 20:56:11 50° SSW 20:56:44 44° S visible
30 Sep -3.7 20:04:37 10° WNW 20:07:57 77° SSW 20:10:29 16° ESE visible
30 Sep -0.9 21:42:21 10° W 21:43:24 13° WSW 21:43:24 13° WSW visible
01 Oct -1.8 20:53:27 10° W 20:56:06 22° SW 20:57:12 19° SSW visible
02 Oct -2.4 20:04:49 10° WNW 20:07:53 34° SW 20:10:57 10° SSE visible
04 Oct -1.0 20:05:27 10° W 20:07:28 15° SW 20:09:30 10° S visible
